TimeCDT,TemperatureF,Dew PointF,Humidity,Sea Level PressureIn,VisibilityMPH,Wind Direction,Wind SpeedMPH,Gust SpeedMPH,PrecipitationIn,Events,Conditions,WindDirDegrees,DateUTC
12:52 AM,41.0,33.1,73,30.06,10.0,Calm,Calm,-,N/A,,Clear,0,2012-11-03 05:52:00
1:52 AM,41.0,34.0,76,30.05,10.0,ENE,4.6,-,N/A,,Clear,70,2012-11-03 06:52:00
2:52 AM,43.0,33.1,68,30.06,8.0,Calm,Calm,-,N/A,,Clear,0,2012-11-03 07:52:00
3:52 AM,42.1,33.1,70,30.06,10.0,East,4.6,-,N/A,,Clear,90,2012-11-03 08:52:00
4:52 AM,39.9,33.1,77,30.05,10.0,ESE,3.5,-,N/A,,Clear,120,2012-11-03 09:52:00
5:52 AM,41.0,33.1,73,30.06,10.0,East,5.8,-,N/A,,Clear,90,2012-11-03 10:52:00
6:52 AM,42.1,34.0,73,30.06,9.0,East,4.6,-,N/A,,Scattered Clouds,90,2012-11-03 11:52:00
7:52 AM,41.0,35.1,79,30.06,6.0,ESE,5.8,-,N/A,,Haze,120,2012-11-03 12:52:00
8:52 AM,46.0,35.1,66,30.06,7.0,ESE,4.6,-,N/A,,Clear,110,2012-11-03 13:52:00
9:52 AM,53.1,36.0,52,30.05,10.0,ESE,9.2,-,N/A,,Clear,110,2012-11-03 14:52:00
10:52 AM,59.0,37.0,44,30.03,10.0,East,8.1,-,N/A,,Clear,100,2012-11-03 15:52:00
11:52 AM,64.0,39.9,41,30.01,10.0,ESE,5.8,-,N/A,,Clear,110,2012-11-03 16:52:00
12:52 PM,68.0,45.0,43,29.97,10.0,SSW,3.5,-,N/A,,Clear,210,2012-11-03 17:52:00
1:52 PM,73.0,48.0,41,29.93,10.0,West,4.6,-,N/A,,Clear,280,2012-11-03 18:52:00
2:52 PM,78.1,55.0,45,29.90,10.0,West,9.2,16.1,N/A,,Clear,270,2012-11-03 19:52:00
3:52 PM,73.0,50.0,44,29.90,10.0,North,12.7,-,N/A,,Overcast,360,2012-11-03 20:52:00
4:52 PM,71.1,48.9,45,29.89,10.0,North,9.2,-,N/A,,Mostly Cloudy,360,2012-11-03 21:52:00
5:52 PM,69.1,50.0,51,29.93,10.0,NNW,13.8,21.9,N/A,,Overcast,330,2012-11-03 22:52:00
6:52 PM,64.9,48.0,54,29.97,10.0,NNW,11.5,-,N/A,,Overcast,340,2012-11-03 23:52:00
7:52 PM,54.0,37.9,55,30.02,10.0,North,16.1,-,N/A,,Clear,350,2012-11-04 00:52:00
8:52 PM,50.0,37.9,63,30.05,10.0,North,12.7,-,N/A,,Clear,350,2012-11-04 01:52:00
9:52 PM,48.0,37.9,68,30.06,10.0,NNW,9.2,-,N/A,,Clear,340,2012-11-04 02:52:00
10:52 PM,45.0,37.9,76,30.07,10.0,North,5.8,-,N/A,,Clear,350,2012-11-04 03:52:00
11:52 PM,45.0,37.9,76,30.09,10.0,NNW,8.1,-,N/A,,Clear,340,2012-11-04 04:52:00